OTTER BROOK LAKE : From 11/25/2019 11:00 to 12/09/2019 16:00

Date STAGE [FT] FLOW [CFS] LAKE ELEVATION [FT] PRECIPITATION INCREMENT [IN] AIR TEMPERATURE [DEGF]
12/09/2019 05:00 -- -- -- 0.00 --
12/09/2019 04:00 -- -- 19.90 0.00 35.6
12/09/2019 03:00 -- -- 19.89 0.00 34.8
12/09/2019 02:00 -- -- 19.89 0.00 34.8
12/09/2019 01:00 -- -- 19.89 0.00 34.9
12/09/2019 00:00 -- -- 19.88 0.00 35.0
12/08/2019 23:00 -- -- 19.88 0.00 35.3
12/08/2019 22:00 -- -- 19.88 0.00 34.8
12/08/2019 21:00 -- -- 19.88 0.00 34.1
12/08/2019 20:00 -- -- 19.87 0.00 34.0
12/08/2019 19:00 -- -- 19.88 0.00 31.8
12/08/2019 18:00 -- -- 19.87 0.00 30.0
12/08/2019 17:00 -- -- 19.87 0.00 29.3
12/08/2019 16:00 -- -- 19.86 0.00 28.8
12/08/2019 15:00 -- -- 19.85 0.00 28.3
12/08/2019 14:00 -- -- 19.86 0.00 27.7
12/08/2019 13:00 -- -- 19.85 0.00 23.9
12/08/2019 12:00 -- -- 19.84 0.00 26.4
12/08/2019 11:00 -- -- 19.83 0.00 29.4
12/08/2019 10:00 -- -- 19.82 0.00 30.4
12/08/2019 09:00 -- -- 19.81 0.00 31.1
12/08/2019 08:00 -- -- 19.80 0.00 31.6
12/08/2019 07:00 -- -- 19.80 0.00 29.2
12/08/2019 06:00 -- -- 19.80 0.00 26.9
12/08/2019 05:00 -- -- 19.81 0.00 15.8
12/08/2019 04:00 -- -- 19.82 0.00 4.0
12/08/2019 03:00 -- -- 19.82 0.00 1.5
12/08/2019 02:00 -- -- 19.83 0.00 1.2
12/08/2019 01:00 -- -- 19.84 0.00 2.8
12/08/2019 00:00 -- -- 19.85 0.00 2.4
12/07/2019 23:00 -- -- 19.85 0.00 3.3
12/07/2019 22:00 -- -- 19.86 0.00 4.8
12/07/2019 21:00 -- -- 19.88 0.00 5.6
12/07/2019 20:00 -- -- 19.89 0.00 5.0
12/07/2019 19:00 -- -- 19.90 0.00 8.0
12/07/2019 18:00 -- -- 19.92 0.00 9.4
12/07/2019 17:00 -- -- 19.92 0.00 10.4
12/07/2019 16:00 -- -- 19.93 0.00 12.0
12/07/2019 15:00 -- -- 19.94 0.00 14.6
12/07/2019 14:00 -- -- 19.95 0.00 16.9
12/07/2019 13:00 -- -- 19.95 0.00 19.5
12/07/2019 12:00 -- -- 19.95 0.00 22.0
12/07/2019 11:00 -- -- 19.95 0.00 26.8
12/07/2019 10:00 -- -- 19.95 0.00 28.0
12/07/2019 09:00 -- -- 19.93 0.00 31.7
12/07/2019 08:00 -- -- 19.94 0.00 29.0
12/07/2019 07:00 -- -- 19.95 0.00 32.3
12/07/2019 06:00 -- -- 19.94 0.00 31.4
12/07/2019 05:00 -- -- 19.95 0.00 24.8
12/07/2019 04:00 -- -- 19.96 0.00 14.3
12/07/2019 03:00 -- -- 19.97 0.00 11.5
12/07/2019 02:00 -- -- 19.98 0.00 14.2
12/07/2019 01:00 -- -- 19.98 0.00 16.6
12/07/2019 00:00 -- -- 19.99 0.00 20.8
12/06/2019 23:00 -- -- 19.99 0.00 23.6
12/06/2019 22:00 -- -- 19.99 0.00 24.6
12/06/2019 21:00 -- -- 19.99 0.00 26.8
12/06/2019 20:00 -- -- 20.00 0.00 27.2
12/06/2019 19:00 -- -- 19.99 0.00 28.2
12/06/2019 18:00 -- -- 19.99 0.00 26.8
12/06/2019 17:00 -- -- 19.99 0.00 27.2
12/06/2019 16:00 -- -- 19.99 0.00 29.3
12/06/2019 15:00 -- -- 19.99 0.00 30.1
12/06/2019 14:00 -- -- 19.99 0.01 31.5
12/06/2019 13:00 -- -- 19.99 0.00 30.1
12/06/2019 12:00 -- -- 19.99 0.03 30.4
12/06/2019 11:00 -- -- 19.99 0.02 30.7
12/06/2019 10:00 -- -- 19.99 0.03 29.5
12/06/2019 09:00 -- -- 19.99 0.03 29.4
12/06/2019 08:00 -- -- 19.99 0.00 29.8
12/06/2019 07:00 -- -- 19.99 0.00 29.2
12/06/2019 06:00 -- -- 19.99 0.00 28.2
12/06/2019 05:00 -- -- 19.99 0.00 25.7
12/06/2019 04:00 -- -- 20.00 0.00 21.9
12/06/2019 03:00 -- -- 20.00 0.00 18.6
12/06/2019 02:00 -- -- 20.01 0.00 15.6
12/06/2019 01:00 -- -- 20.02 0.00 15.1
12/06/2019 00:00 -- -- 20.03 0.00 17.0
12/05/2019 23:00 -- -- 20.03 0.00 17.1
12/05/2019 22:00 -- -- 20.03 0.00 18.4
12/05/2019 21:00 -- -- 20.04 0.00 21.0
12/05/2019 20:00 -- -- 20.04 0.00 22.6
12/05/2019 19:00 -- -- 20.03 0.00 24.1
12/05/2019 18:00 -- -- 20.05 0.00 27.3
12/05/2019 17:00 -- -- 20.05 0.00 27.7
12/05/2019 16:00 -- -- 20.06 0.00 28.8
12/05/2019 15:00 -- -- 20.04 0.00 30.7
12/05/2019 14:00 -- -- 20.05 0.00 32.8
12/05/2019 13:00 -- -- 20.06 0.00 32.7
12/05/2019 12:00 -- -- 20.07 0.00 34.3
12/05/2019 11:00 -- -- 20.07 0.00 35.2
12/05/2019 10:00 -- -- 20.08 0.00 36.3
12/05/2019 09:00 -- -- 20.08 0.00 37.6
12/05/2019 08:00 -- -- 20.08 0.00 39.6
12/05/2019 07:00 -- -- 20.09 0.00 38.8
12/05/2019 06:00 -- -- 20.09 0.00 38.7
12/05/2019 05:00 -- -- 20.09 0.00 32.4
12/05/2019 04:00 -- -- 20.10 0.00 30.1
12/05/2019 03:00 -- -- 20.10 0.00 26.2
12/05/2019 02:00 -- -- 20.11 0.00 25.2
12/05/2019 01:00 -- -- 20.11 0.00 26.7
12/05/2019 00:00 -- -- 20.11 0.00 26.9
12/04/2019 23:00 -- -- 20.12 0.00 27.8
12/04/2019 22:00 -- -- 20.12 0.00 27.9
12/04/2019 21:00 -- -- 20.13 0.00 29.1
12/04/2019 20:00 -- -- 20.13 0.00 29.2
12/04/2019 19:00 -- -- 20.13 0.00 29.0
12/04/2019 18:00 -- -- 20.14 0.00 27.8
12/04/2019 17:00 -- -- 20.14 0.00 28.3
12/04/2019 16:00 -- -- 20.15 0.00 30.9
12/04/2019 15:00 -- -- 20.15 0.00 31.0
12/04/2019 14:00 -- -- 20.15 0.00 30.9
12/04/2019 13:00 -- -- 20.15 0.00 31.5
12/04/2019 12:00 -- -- 20.15 0.00 33.0
12/04/2019 11:00 -- -- 20.16 0.00 35.4
12/04/2019 10:00 -- -- 20.16 0.00 36.6
12/04/2019 09:00 -- -- 20.16 0.00 38.5
12/04/2019 08:00 -- -- 20.16 0.00 39.9
12/04/2019 07:00 -- -- 20.17 0.00 38.4
12/04/2019 06:00 -- -- 20.17 0.00 38.6
12/04/2019 05:00 -- -- 20.18 0.00 31.2
12/04/2019 04:00 -- -- 20.20 0.00 26.1
12/04/2019 03:00 -- -- 20.22 0.00 23.0
12/04/2019 02:00 -- -- 20.23 0.00 22.2
12/04/2019 01:00 -- -- 20.25 0.00 21.4
12/04/2019 00:00 -- -- 20.27 0.00 21.4
12/03/2019 23:00 -- -- 20.29 0.00 20.3
12/03/2019 22:00 -- -- 20.32 0.00 20.9
12/03/2019 21:00 -- -- 20.34 0.00 17.9
12/03/2019 20:00 -- -- 20.39 0.00 17.4
12/03/2019 19:00 -- -- 20.43 0.00 16.0
12/03/2019 18:00 -- -- 20.49 0.00 18.9
12/03/2019 17:00 -- -- 20.55 0.00 19.4
12/03/2019 16:00 -- -- 20.62 0.00 23.3
12/03/2019 15:00 -- -- 20.69 0.00 23.9
12/03/2019 14:00 -- -- 20.76 0.00 27.0
12/03/2019 13:00 -- -- 20.83 0.00 29.0
12/03/2019 12:00 -- -- 20.90 0.00 30.9
12/03/2019 11:00 -- -- 20.96 0.00 32.4
12/03/2019 10:00 -- -- 21.04 0.00 34.5
12/03/2019 09:00 -- -- 21.09 0.00 33.4
12/03/2019 08:00 -- -- 21.15 0.00 33.0
12/03/2019 07:00 -- -- 21.20 0.00 30.9
12/03/2019 06:00 -- -- 21.28 0.00 30.0
12/03/2019 05:00 -- -- 21.34 0.00 28.3
12/03/2019 04:00 -- -- 21.43 0.00 27.1
12/03/2019 03:00 -- -- 21.49 0.00 26.3
12/03/2019 02:00 -- -- 21.57 0.02 25.8
12/03/2019 01:00 -- -- 21.64 0.01 25.9
12/03/2019 00:00 -- -- 21.70 0.01 25.6
12/02/2019 23:00 -- -- 21.77 0.00 25.8
12/02/2019 22:00 -- -- 21.84 0.01 26.0
12/02/2019 21:00 -- -- 21.91 0.00 27.0
12/02/2019 20:00 -- -- 21.97 0.00 27.6
12/02/2019 19:00 -- -- 22.04 0.00 27.9
12/02/2019 18:00 -- -- 22.10 0.00 28.5
12/02/2019 17:00 -- -- 22.17 0.00 28.8
12/02/2019 16:00 -- -- 22.23 0.01 28.4
12/02/2019 15:00 -- -- 22.29 0.00 29.3
12/02/2019 14:00 -- -- 22.35 0.00 29.1
12/02/2019 13:00 -- -- 22.41 0.00 28.5
12/02/2019 12:00 -- -- 22.47 0.00 29.2
12/02/2019 11:00 -- -- 22.53 0.00 30.3
12/02/2019 10:00 -- -- 22.61 0.00 31.5
12/02/2019 09:00 -- -- 22.67 0.01 31.4
12/02/2019 08:00 -- -- 22.73 0.00 30.7
12/02/2019 07:00 -- -- 22.79 0.00 32.2
12/02/2019 06:00 -- -- 22.87 0.02 31.4
12/02/2019 05:00 -- -- 22.93 0.00 31.1
12/02/2019 04:00 -- -- 23.00 0.02 30.0
12/02/2019 03:00 -- -- 23.09 0.28 29.2
12/02/2019 02:00 -- -- 23.15 0.01 28.5
12/02/2019 01:00 7.21 193.1 23.22 0.02 28.0
12/02/2019 00:00 7.21 193.1 23.29 0.02 27.7
12/01/2019 23:00 7.21 193.1 23.38 0.03 27.5
12/01/2019 22:00 7.22 195.5 23.45 0.03 27.3
12/01/2019 21:00 7.22 195.5 23.52 0.04 27.4
12/01/2019 20:00 7.21 193.1 23.60 0.04 27.4
12/01/2019 19:00 7.22 195.5 23.68 0.38 28.0
12/01/2019 18:00 -- -- 23.69 0.06 28.2
12/01/2019 17:00 -- -- 23.77 0.06 27.9
12/01/2019 16:00 -- -- 23.84 0.06 27.6
12/01/2019 15:00 -- -- 23.91 0.06 27.4
12/01/2019 14:00 -- -- 23.99 0.06 27.1
12/01/2019 13:00 -- -- 24.07 0.06 26.8
12/01/2019 12:00 -- -- 24.14 0.06 26.5
12/01/2019 11:00 7.22 195.5 24.17 0.00 26.0
12/01/2019 10:00 7.23 198.0 24.22 0.00 27.2
12/01/2019 09:00 7.22 195.5 24.27 0.00 27.8
12/01/2019 08:00 7.23 198.0 24.33 0.00 27.0
12/01/2019 07:00 7.24 200.5 24.38 0.00 26.2
12/01/2019 06:00 7.23 198.0 24.44 0.00 24.3
12/01/2019 05:00 7.24 200.5 24.51 0.00 22.4
12/01/2019 04:00 7.24 200.5 24.59 0.00 19.2
12/01/2019 03:00 7.23 198.0 24.68 0.00 15.2
12/01/2019 02:00 7.24 200.5 24.75 0.00 13.5
12/01/2019 01:00 7.24 200.5 24.83 0.00 13.6
12/01/2019 00:00 7.24 200.5 24.89 0.00 13.4
11/30/2019 23:00 7.24 200.5 24.96 0.00 13.8
11/30/2019 22:00 7.23 198.0 25.03 0.00 15.5
11/30/2019 21:00 7.24 200.5 25.09 0.00 16.6
11/30/2019 20:00 7.25 203.0 25.15 0.00 16.6
11/30/2019 19:00 7.25 203.0 25.20 0.00 17.1
11/30/2019 18:00 7.25 203.0 25.25 0.00 18.0
11/30/2019 17:00 7.25 203.0 25.29 0.00 19.4
11/30/2019 16:00 7.25 203.0 25.34 0.00 20.9
11/30/2019 15:00 -- -- 25.40 0.00 23.5
11/30/2019 14:00 7.26 205.5 25.42 0.00 24.6
11/30/2019 13:00 7.25 203.0 25.46 0.00 26.1
11/30/2019 12:00 7.26 205.5 25.49 0.00 27.2
11/30/2019 11:00 7.26 205.5 25.52 0.00 29.0
11/30/2019 10:00 7.26 205.5 25.56 0.00 31.3
11/30/2019 09:00 7.25 203.0 25.59 0.00 32.4
11/30/2019 08:00 7.26 205.5 25.62 0.00 33.4
11/30/2019 07:00 7.26 205.5 25.63 0.00 32.6
11/30/2019 06:00 7.25 203.0 25.69 0.00 29.8
11/30/2019 05:00 7.25 203.0 25.71 0.00 26.9
11/30/2019 04:00 7.25 203.0 25.74 0.00 21.9
11/30/2019 03:00 7.26 205.5 25.77 0.00 19.6
11/30/2019 02:00 7.27 208.1 25.79 0.00 18.5
11/30/2019 01:00 7.26 205.5 25.81 0.00 18.9
11/30/2019 00:00 7.25 203.0 25.82 0.00 19.9
11/29/2019 23:00 7.26 205.5 25.83 0.00 19.5
11/29/2019 22:00 7.26 205.5 25.84 0.00 20.1
11/29/2019 21:00 7.26 205.5 25.85 0.00 21.1
11/29/2019 20:00 7.26 205.5 25.85 0.00 24.1
11/29/2019 19:00 7.26 205.5 25.85 0.00 24.1
11/29/2019 18:00 7.26 205.5 25.85 0.00 25.7
11/29/2019 17:00 7.26 205.5 25.84 0.00 26.6
11/29/2019 16:00 7.26 205.5 25.84 0.00 27.2
11/29/2019 15:00 7.27 208.1 25.82 0.00 28.0
11/29/2019 14:00 7.25 203.0 25.81 0.00 29.2
11/29/2019 13:00 7.26 205.5 25.79 0.00 30.9
11/29/2019 12:00 7.26 205.5 25.77 0.00 32.1
11/29/2019 11:00 7.26 205.5 25.75 0.00 33.2
11/29/2019 10:00 7.26 205.5 25.73 0.00 33.5
11/29/2019 09:00 7.26 205.5 25.70 0.00 35.5
11/29/2019 08:00 7.25 203.0 25.63 0.00 37.1
11/29/2019 07:00 7.26 205.5 25.62 0.00 37.5
11/29/2019 06:00 7.26 205.5 25.59 0.00 36.8
11/29/2019 05:00 7.26 205.5 25.56 0.00 34.3
11/29/2019 04:00 7.26 205.5 25.50 0.00 32.6
11/29/2019 03:00 7.26 205.5 25.43 0.00 31.6
11/29/2019 02:00 7.26 205.5 25.39 0.00 31.4
11/29/2019 01:00 7.25 203.0 25.33 0.00 31.5
11/29/2019 00:00 7.25 203.0 25.25 0.00 31.4
11/28/2019 23:00 7.24 200.5 25.18 0.00 31.2
11/28/2019 22:00 7.25 203.0 25.13 0.00 31.6
11/28/2019 21:00 7.25 203.0 25.02 0.00 31.7
11/28/2019 20:00 7.25 203.0 24.93 0.00 31.5
11/28/2019 19:00 7.24 200.5 24.85 0.00 31.5
11/28/2019 18:00 7.24 200.5 24.75 0.00 31.6
11/28/2019 17:00 7.24 200.5 24.63 0.00 31.7
11/28/2019 16:00 7.24 200.5 24.51 0.00 31.8
11/28/2019 15:00 7.23 198.0 24.40 0.00 32.0
11/28/2019 14:00 7.24 200.5 24.28 0.00 32.5
11/28/2019 13:00 7.23 198.0 24.14 0.00 33.4
11/28/2019 12:00 7.23 198.0 24.00 0.00 34.9
11/28/2019 11:00 7.23 198.0 23.85 0.00 35.8
11/28/2019 10:00 7.22 195.5 23.71 0.00 36.9
11/28/2019 09:00 7.23 198.0 23.57 0.00 38.0
11/28/2019 08:00 7.23 198.0 23.42 0.00 37.5
11/28/2019 07:00 7.22 195.5 23.21 0.00 38.1
11/28/2019 06:00 7.22 195.5 23.07 0.00 37.5
11/28/2019 05:00 7.22 195.5 22.93 0.00 38.4
11/28/2019 04:00 7.20 190.6 22.74 0.00 40.9
11/28/2019 03:00 7.20 190.6 22.59 0.00 39.5
11/28/2019 02:00 7.21 193.1 22.45 0.01 39.6
11/28/2019 01:00 7.20 190.6 22.32 0.03 40.1
11/28/2019 00:00 7.21 193.1 22.20 0.05 40.2
11/27/2019 23:00 7.19 188.2 22.10 0.02 41.2
11/27/2019 22:00 7.19 188.2 22.01 0.03 41.3
11/27/2019 21:00 7.20 190.6 21.93 0.03 42.0
11/27/2019 20:00 7.19 188.2 21.87 0.01 43.3
11/27/2019 19:00 7.19 188.2 21.81 0.01 43.2
11/27/2019 18:00 7.19 188.2 21.78 0.04 43.4
11/27/2019 17:00 7.19 188.2 21.75 0.04 44.3
11/27/2019 16:00 7.19 188.2 21.76 0.03 44.7
11/27/2019 15:00 7.19 188.2 21.75 0.07 45.7
11/27/2019 14:00 7.19 188.2 21.76 0.10 44.8
11/27/2019 13:00 7.17 183.4 21.78 0.02 46.4
11/27/2019 12:00 7.18 185.8 21.81 0.00 47.6
11/27/2019 11:00 7.18 185.8 21.84 0.00 47.4
11/27/2019 10:00 7.20 190.6 21.85 0.00 48.9
11/27/2019 09:00 7.19 188.2 21.87 0.00 49.5
11/27/2019 08:00 7.18 185.8 21.90 0.00 49.6
11/27/2019 07:00 7.19 188.2 21.92 0.00 45.3
11/27/2019 06:00 7.19 188.2 21.95 0.00 38.8
11/27/2019 05:00 7.19 188.2 21.98 0.00 37.3
11/27/2019 04:00 7.19 188.2 22.00 0.00 35.6
11/27/2019 03:00 7.19 188.2 22.02 0.00 34.6
11/27/2019 02:00 7.20 190.6 22.04 0.00 31.0
11/27/2019 01:00 7.19 188.2 22.06 0.00 32.2
11/27/2019 00:00 7.19 188.2 22.08 0.00 30.3
11/26/2019 23:00 7.19 188.2 22.09 0.00 33.1
11/26/2019 22:00 7.19 188.2 22.11 0.00 33.6
11/26/2019 21:00 7.19 188.2 22.12 0.00 33.7
11/26/2019 20:00 7.20 190.6 22.14 0.00 34.1
11/26/2019 19:00 7.19 188.2 22.15 0.00 35.4
11/26/2019 18:00 7.19 188.2 22.16 0.00 35.9
11/26/2019 17:00 7.19 188.2 22.16 0.00 36.0
11/26/2019 16:00 7.19 188.2 22.17 0.00 37.5
11/26/2019 15:00 7.19 188.2 22.17 0.00 38.2
11/26/2019 14:00 7.19 188.2 22.17 0.00 40.1
11/26/2019 13:00 7.20 190.6 22.17 0.00 42.2
11/26/2019 12:00 7.20 190.6 22.17 0.00 46.3
11/26/2019 11:00 7.20 190.6 22.18 0.00 51.3
11/26/2019 10:00 7.19 188.2 22.18 0.00 53.0
11/26/2019 09:00 7.19 188.2 22.18 0.00 53.3
11/26/2019 08:00 7.19 188.2 22.18 0.00 50.1
11/26/2019 07:00 7.19 188.2 22.18 0.00 46.0
11/26/2019 06:00 7.19 188.2 22.18 0.00 41.5
11/26/2019 05:00 7.19 188.2 22.18 0.00 33.1
11/26/2019 04:00 7.20 190.6 22.18 0.00 31.2
11/26/2019 03:00 7.20 190.6 22.17 0.00 30.7
11/26/2019 02:00 7.20 190.6 22.16 0.00 30.8
11/26/2019 01:00 7.20 190.6 22.14 0.00 30.2
11/26/2019 00:00 7.19 188.2 22.12 0.00 31.8
11/25/2019 23:00 7.20 190.6 22.10 0.00 32.1
11/25/2019 22:00 7.19 188.2 22.08 0.00 32.9
11/25/2019 21:00 7.19 188.2 22.05 0.00 32.7
11/25/2019 20:00 7.19 188.2 22.02 0.00 34.5
11/25/2019 19:00 7.19 188.2 21.99 0.00 34.0
11/25/2019 18:00 7.19 188.2 21.94 0.00 34.4
11/25/2019 17:00 7.18 185.8 21.90 0.00 34.9
11/25/2019 16:00 7.19 188.2 21.86 0.00 36.6
11/25/2019 15:00 7.18 185.8 21.81 0.00 36.7
11/25/2019 14:00 7.19 188.2 21.76 0.00 37.2
11/25/2019 13:00 7.19 188.2 21.71 0.00 38.8
11/25/2019 12:00 7.18 185.8 21.66 0.00 40.3
11/25/2019 11:00 7.19 188.2 21.61 0.00 44.5